Location: *
(35.8942°N, 23.3025°E)
Time: 23:42:35
(UTC+00:00)

Cosmos 1386 Rocket - Pass Details

Date: 21 September 2021
Orbit: 929 x 1006 km, 83.0° (Epoch: 22 October)

Event Time Altitude Azimuth Distance (km) Brightness Sun altitude
Rises 03:29:46 0° 353° (N) 3,601 7.5 -9.7°
Reaches altitude 10° 03:32:14 10° 353° (N) 2,660 6.8 -9.3°
Maximum altitude 03:38:19 88° 263° (W) 956 4.5 -8.0°
Drops below altitude 10° 03:44:29 10° 176° (S) 2,692 6.8 -6.8°
Sets 03:46:59 0° 176° (S) 3,647 7.5 -6.3°
